• In Uzbekistan
  • List of Countries
  • For 7 days
  • Water Temperature
  • Satellite Maps
  • Weather Map
  • Weather Widgets
  • user-avatar
    Login

    Hourly Weather Djelfa

    Today, 18 January, Wednesday

    Time Temperature Precipitation Wind Pressure Humidity
    00:00 -4°C° 0 mm 5 mps 659 mmHg 71%
    01:00 -5°C° 0 mm 5 mps 659 mmHg 73%
    02:00 -5°C° 0 mm 5 mps 659 mmHg 75%
    03:00 -5°C° 0 mm 5 mps 659 mmHg 78%
    04:00 -4°C° 0 mm 4 mps 659 mmHg 78%
    05:00 -4°C° 0 mm 4 mps 659 mmHg 78%
    06:00 -4°C° 0 mm 4 mps 660 mmHg 78%
    07:00 -3°C° 0 mm 4 mps 660 mmHg 74%
    08:00 -3°C° 0 mm 4 mps 660 mmHg 69%
    09:00 -2°C° 0 mm 4 mps 661 mmHg 64%
    10:00 0°C° 0 mm 3 mps 661 mmHg 59%
    11:00 +2°C° 0 mm 2 mps 661 mmHg 53%
    12:00 +3°C° 0 mm 2 mps 661 mmHg 48%
    13:00 +4°C° 0 mm 1 mps 661 mmHg 46%
    14:00 +5°C° 0 mm 1 mps 661 mmHg 44%
    15:00 +4°C° 0 mm 0 mps 661 mmHg 42%
    16:00 +4°C° 0 mm 1 mps 661 mmHg 46%
    17:00 +3°C° 0 mm 1 mps 661 mmHg 51%
    18:00 +2°C° 0 mm 1 mps 661 mmHg 55%
    19:00 +2°C° 0 mm 1 mps 661 mmHg 55%
    20:00 +1°C° 0 mm 2 mps 661 mmHg 55%
    21:00 +1°C° 0 mm 2 mps 661 mmHg 56%
    22:00 0°C° 0 mm 3 mps 661 mmHg 55%
    23:00 0°C° 0 mm 3 mps 661 mmHg 55%

    Tomorrow, 19 January, Thursday

    Time Temperature Precipitation Wind Pressure Humidity
    00:00 -2°C° 0 mm 4 mps 661 mmHg 54%
    01:00 -2°C° 0 mm 4 mps 661 mmHg 56%
    02:00 -2°C° 0 mm 4 mps 661 mmHg 58%
    03:00 -2°C° 0 mm 4 mps 661 mmHg 60%
    04:00 -2°C° 0 mm 4 mps 661 mmHg 60%
    05:00 -2°C° 0 mm 4 mps 661 mmHg 61%
    06:00 -2°C° 0 mm 4 mps 661 mmHg 62%
    07:00 -1°C° 0 mm 5 mps 661 mmHg 58%
    08:00 0°C° 0 mm 5 mps 662 mmHg 54%
    09:00 +1°C° 0 mm 6 mps 662 mmHg 50%
    10:00 +2°C° 0 mm 6 mps 662 mmHg 48%
    11:00 +3°C° 0 mm 7 mps 662 mmHg 46%
    12:00 +4°C° 0 mm 7 mps 662 mmHg 45%
    13:00 +4°C° 0 mm 7 mps 662 mmHg 45%
    14:00 +4°C° 0 mm 7 mps 662 mmHg 46%
    15:00 +4°C° 0 mm 7 mps 661 mmHg 47%
    16:00 +3°C° 0 mm 7 mps 661 mmHg 51%
    17:00 +2°C° 0 mm 6 mps 661 mmHg 55%
    18:00 +1°C° 0 mm 6 mps 661 mmHg 60%
    19:00 -1°C° 0 mm 6 mps 661 mmHg 62%
    20:00 0°C° 0 mm 5 mps 661 mmHg 64%
    21:00 0°C° 0 mm 5 mps 662 mmHg 66%
    22:00 -1°C° 0 mm 5 mps 662 mmHg 67%
    23:00 -1°C° 0 mm 5 mps 662 mmHg 68%

    Day after tomorrow, 20 January, Friday

    Time Temperature Precipitation Wind Pressure Humidity
    00:00 -1°C° 0 mm 4 mps 661 mmHg 69%
    01:00 -1°C° 0 mm 4 mps 661 mmHg 68%
    02:00 -1°C° 0 mm 4 mps 661 mmHg 68%
    03:00 0°C° 0 mm 3 mps 661 mmHg 67%
    04:00 -1°C° 0 mm 3 mps 661 mmHg 67%
    05:00 -1°C° 0 mm 3 mps 661 mmHg 67%
    06:00 -2°C° 0 mm 4 mps 661 mmHg 66%
    07:00 -1°C° 0 mm 4 mps 661 mmHg 63%
    08:00 0°C° 0 mm 5 mps 661 mmHg 59%
    09:00 +1°C° 0 mm 5 mps 661 mmHg 56%
    10:00 +2°C° 0 mm 6 mps 661 mmHg 54%
    11:00 +3°C° 0 mm 6 mps 661 mmHg 52%
    12:00 +4°C° 0 mm 7 mps 660 mmHg 50%
    13:00 +4°C° 0 mm 7 mps 660 mmHg 51%
    14:00 +4°C° 0 mm 7 mps 659 mmHg 53%
    15:00 +4°C° 0 mm 7 mps 659 mmHg 54%
    16:00 +3°C° 0.1 mm 6 mps 658 mmHg 59%
    17:00 +2°C° 0.1 mm 6 mps 658 mmHg 64%
    18:00 +2°C° 0.1 mm 5 mps 658 mmHg 69%
    19:00 +1°C° 1.1 mm 4 mps 658 mmHg 73%
    20:00 +2°C° 1.1 mm 3 mps 658 mmHg 77%
    21:00 +2°C° 1.1 mm 3 mps 658 mmHg 81%
    22:00 +1°C° 1.5 mm 3 mps 658 mmHg 83%
    23:00 +1°C° 1.5 mm 3 mps 657 mmHg 84%

    21 January, Saturday

    Time Temperature Precipitation Wind Pressure Humidity
    00:00 +1°C° 1.5 mm 3 mps 657 mmHg 86%
    01:00 -1°C° 1 mm 4 mps 657 mmHg 87%
    02:00 -1°C° 1 mm 5 mps 657 mmHg 88%
    03:00 -1°C° 1 mm 5 mps 657 mmHg 90%
    04:00 -3°C° 0.4 mm 6 mps 657 mmHg 89%
    05:00 -3°C° 0.4 mm 7 mps 657 mmHg 89%
    06:00 -3°C° 0.4 mm 7 mps 657 mmHg 89%
    07:00 -4°C° 0.1 mm 8 mps 657 mmHg 89%
    08:00 -3°C° 0.1 mm 9 mps 657 mmHg 90%
    09:00 -3°C° 0.1 mm 10 mps 658 mmHg 90%
    10:00 -2°C° 0 mm 10 mps 658 mmHg 88%
    11:00 0°C° 0 mm 9 mps 658 mmHg 86%
    12:00 0°C° 0 mm 9 mps 658 mmHg 84%
    13:00 +1°C° 0 mm 9 mps 657 mmHg 81%
    14:00 +1°C° 0 mm 9 mps 657 mmHg 79%
    15:00 +1°C° 0 mm 9 mps 657 mmHg 76%
    16:00 0°C° 0 mm 9 mps 657 mmHg 79%
    17:00 0°C° 0 mm 8 mps 657 mmHg 81%
    18:00 -1°C° 0 mm 8 mps 657 mmHg 84%
    19:00 -1°C° 0 mm 8 mps 657 mmHg 84%
    20:00 -1°C° 0 mm 8 mps 657 mmHg 85%
    21:00 -1°C° 0 mm 8 mps 658 mmHg 85%
    22:00 -1°C° 0.1 mm 8 mps 657 mmHg 86%
    23:00 -2°C° 0.1 mm 7 mps 657 mmHg 87%

    22 January, Sunday

    Time Temperature Precipitation Wind Pressure Humidity
    00:00 -2°C° 0.1 mm 7 mps 657 mmHg 88%
    01:00 -1°C° 0.1 mm 7 mps 657 mmHg 90%
    02:00 -1°C° 0.1 mm 7 mps 657 mmHg 91%
    03:00 -1°C° 0.1 mm 6 mps 656 mmHg 93%
    04:00 -1°C° 0.2 mm 6 mps 657 mmHg 93%
    05:00 0°C° 0.2 mm 5 mps 657 mmHg 94%
    06:00 0°C° 0.2 mm 5 mps 657 mmHg 95%
    07:00 -1°C° 0.3 mm 6 mps 657 mmHg 93%
    08:00 +1°C° 0.3 mm 6 mps 658 mmHg 91%
    09:00 +2°C° 0.3 mm 7 mps 659 mmHg 89%
    10:00 +1°C° 0.1 mm 8 mps 659 mmHg 86%
    11:00 +2°C° 0.1 mm 9 mps 659 mmHg 83%
    12:00 +2°C° 0.1 mm 9 mps 660 mmHg 79%
    13:00 +2°C° 0.1 mm 9 mps 660 mmHg 78%
    14:00 +2°C° 0.1 mm 9 mps 660 mmHg 76%
    15:00 +2°C° 0.1 mm 9 mps 660 mmHg 74%
    16:00 +1°C° 0 mm 8 mps 660 mmHg 76%
    17:00 0°C° 0 mm 7 mps 661 mmHg 79%
    18:00 0°C° 0 mm 5 mps 661 mmHg 81%
    19:00 -1°C° 0 mm 6 mps 662 mmHg 83%
    20:00 -1°C° 0 mm 6 mps 662 mmHg 85%
    21:00 -2°C° 0 mm 6 mps 663 mmHg 87%
    22:00 -2°C° 0 mm 6 mps 663 mmHg 88%
    23:00 -2°C° 0 mm 6 mps 663 mmHg 89%

    23 January, Monday

    Time Temperature Precipitation Wind Pressure Humidity
    00:00 -2°C° 0 mm 5 mps 663 mmHg 90%
    01:00 -2°C° 0 mm 5 mps 663 mmHg 90%
    02:00 -2°C° 0 mm 5 mps 663 mmHg 90%
    03:00 -2°C° 0 mm 5 mps 662 mmHg 90%
    04:00 -3°C° 0 mm 4 mps 663 mmHg 91%
    05:00 -3°C° 0 mm 4 mps 663 mmHg 92%
    06:00 -3°C° 0 mm 4 mps 663 mmHg 93%
    07:00 -2°C° 0 mm 4 mps 663 mmHg 89%
    08:00 -1°C° 0 mm 4 mps 664 mmHg 85%
    09:00 0°C° 0 mm 4 mps 664 mmHg 81%
    10:00 +1°C° 0 mm 4 mps 664 mmHg 74%
    11:00 +3°C° 0 mm 4 mps 664 mmHg 68%
    12:00 +4°C° 0 mm 4 mps 664 mmHg 61%
    13:00 +4°C° 0 mm 4 mps 664 mmHg 59%
    14:00 +5°C° 0 mm 4 mps 664 mmHg 57%
    15:00 +5°C° 0 mm 4 mps 664 mmHg 56%
    16:00 +4°C° 0 mm 3 mps 663 mmHg 60%
    17:00 +3°C° 0 mm 3 mps 663 mmHg 64%
    18:00 +3°C° 0 mm 2 mps 663 mmHg 68%
    19:00 +3°C° 0 mm 2 mps 664 mmHg 70%
    20:00 +2°C° 0 mm 2 mps 664 mmHg 72%
    21:00 +2°C° 0 mm 2 mps 664 mmHg 74%
    22:00 +1°C° 0 mm 2 mps 664 mmHg 76%
    23:00 +1°C° 0 mm 2 mps 664 mmHg 78%
    Show more